TimeEST,TemperatureF,Dew PointF,Humidity,Sea Level PressureIn,VisibilityMPH,Wind Direction,Wind SpeedMPH,Gust SpeedMPH,PrecipitationIn,Events,Conditions,WindDirDegrees,DateUTC
12:54 AM,46.0,33.1,61,30.06,9.0,Calm,Calm,-,0.01,Rain,Light Rain,0,2012-12-16 05:54:00
1:54 AM,44.1,37.0,76,30.06,10.0,Calm,Calm,-,0.02,Rain,Light Rain,0,2012-12-16 06:54:00
2:54 AM,42.1,39.0,89,30.07,8.0,NNW,4.6,-,0.04,Rain,Light Rain,330,2012-12-16 07:54:00
3:54 AM,42.1,39.0,89,30.08,8.0,Calm,Calm,-,0.03,Rain,Light Rain,0,2012-12-16 08:54:00
4:54 AM,42.1,39.9,92,30.06,10.0,Calm,Calm,-,0.02,,Overcast,0,2012-12-16 09:54:00
5:54 AM,41.0,39.0,93,30.06,8.0,SE,3.5,-,N/A,,Scattered Clouds,140,2012-12-16 10:54:00
6:54 AM,39.9,37.9,93,30.05,5.0,Calm,Calm,-,N/A,,Clear,0,2012-12-16 11:54:00
7:54 AM,39.2,39.2,100,30.04,6.0,Calm,Calm,-,N/A,,Mostly Cloudy,0,2012-12-16 12:54:00
8:54 AM,42.1,39.9,92,30.05,4.0,Calm,Calm,-,N/A,,Mostly Cloudy,0,2012-12-16 13:54:00
9:01 AM,42.8,41.0,93,30.03,4.0,Calm,Calm,-,N/A,,Mostly Cloudy,0,2012-12-16 14:01:00
9:54 AM,42.1,37.9,85,30.04,10.0,SSE,3.5,-,N/A,,Overcast,160,2012-12-16 14:54:00
10:54 AM,43.0,37.9,82,30.02,5.0,Calm,Calm,-,N/A,,Haze,0,2012-12-16 15:54:00
11:54 AM,44.1,39.0,82,30.00,5.0,Calm,Calm,-,N/A,,Haze,0,2012-12-16 16:54:00
12:54 PM,44.1,39.0,82,29.96,9.0,Calm,Calm,-,0.00,Rain,Light Rain,0,2012-12-16 17:54:00
1:54 PM,44.1,39.9,85,29.95,8.0,Calm,Calm,-,0.01,Rain,Light Rain,0,2012-12-16 18:54:00
2:54 PM,45.0,41.0,86,29.94,7.0,Calm,Calm,-,0.00,Rain,Light Rain,0,2012-12-16 19:54:00
3:54 PM,45.0,42.1,90,29.94,6.0,North,6.9,-,0.00,,Overcast,360,2012-12-16 20:54:00
4:54 PM,45.0,42.1,90,29.91,6.0,NW,3.5,-,N/A,,Mostly Cloudy,310,2012-12-16 21:54:00
5:54 PM,45.0,42.1,90,29.89,6.0,Calm,Calm,-,N/A,,Scattered Clouds,0,2012-12-16 22:54:00
6:54 PM,45.0,42.1,90,29.88,6.0,Calm,Calm,-,0.00,,Overcast,0,2012-12-16 23:54:00
7:54 PM,45.0,43.0,93,29.87,6.0,NW,3.5,-,N/A,,Overcast,310,2012-12-17 00:54:00
8:54 PM,46.0,44.1,93,29.88,6.0,SE,3.5,-,N/A,,Overcast,130,2012-12-17 01:54:00
9:54 PM,46.0,44.1,93,29.88,6.0,Calm,Calm,-,N/A,,Overcast,0,2012-12-17 02:54:00
10:54 PM,48.9,45.0,86,29.90,8.0,Calm,Calm,-,0.00,Rain,Light Rain,0,2012-12-17 03:54:00
11:54 PM,53.1,48.9,86,29.90,8.0,SW,8.1,-,0.05,Rain,Light Rain,230,2012-12-17 04:54:00